Home > Weather > San Angelo > Past weeks

Flag for USA Past Weather in San Angelo, Texas, USA — Yesterday and Last 2 Weeks

Now
89 °F

Sunny.


Feels Like: 88 °F
Forecast: 75 / 92 °F
Wind: 14 mph from Southeast

Location: Mathis Field

Current Time: Jun 24, 2016 at 8:47:23 PM

Latest Report: Jun 24, 2016 at 7:51 PM


Visibility: 10 mi

Pressure: 29.86 "Hg (28.04 "Hg at 561m altitude)

Humidity: 35%

Dew Point: 58 °F

Location of San AngeloLocation

Past Weather in San Angelo — Graph

°F

San Angelo Temperature Yesterday

Maximum temperature yesterday: 96 °F (at 4:51 PM)
Minimum temperature yesterday: 74 °F (at 6:51 AM)
Average temperature yesterday: 84 °F

High & Low Weather Summary for the Past Weeks

 TemperatureHumidityPressure
High98 °F (Jun 17, 4:51 PM)97% (Jun 12, 6:51 AM)30.19 "Hg (Jun 12, 6:51 AM)
Low67 °F (Jun 12, 6:51 AM)26% (Jun 23, 4:51 PM)29.72 "Hg (Jun 14, 5:51 PM)
Average83 °F63%29.93 "Hg
* Reported Jun 9 6:51 PM — Jun 24 6:51 PM, San Angelo, Weather by CustomWeather, © 2016

Note: Actual official high and low records may vary slightly from our data, if they occured in-between our weather recording intervals... More about our weather records

Advertising

San Angelo Weather History for the Previous 24 Hours

Scroll right to see more
 ConditionsComfort  
Time TempWeatherWind HumidityBarometerVisibility
6:51 PM
Fri, Jun 24
92 °FSunny.9 mph32%29.86 "Hg10 mi
5:51 PM93 °FPassing clouds.14 mph33%29.87 "Hg10 mi
4:51 PM92 °FPassing clouds.12 mph35%29.89 "Hg10 mi
3:51 PM92 °FPartly sunny.9 mph36%29.90 "Hg10 mi
2:51 PM93 °FPartly sunny.10 mph36%29.92 "Hg10 mi
1:51 PM91 °FScattered clouds.14 mph38%29.95 "Hg10 mi
12:51 PM90 °FScattered clouds.9 mph42%29.97 "Hg10 mi
11:51 AM88 °FSunny.7 mph48%29.99 "Hg10 mi
10:51 AM85 °FSunny.9 mph57%30.00 "Hg10 mi
9:51 AM82 °FSunny.10 mph65%30.01 "Hg10 mi
8:51 AM78 °FSunny.10 mph74%30.01 "Hg10 mi
7:51 AM74 °FSunny.3 mph82%30.01 "Hg10 mi
6:51 AM71 °FClear.7 mph87%29.98 "Hg10 mi
5:51 AM73 °FClear.3 mph79%29.96 "Hg10 mi
4:51 AM74 °FClear.10 mph76%29.95 "Hg10 mi
3:51 AM75 °FClear.9 mph71%29.94 "Hg10 mi
2:51 AM76 °FClear.9 mph67%29.94 "Hg10 mi
1:51 AM77 °FClear.9 mph64%29.95 "Hg10 mi
12:51 AM77 °FClear.6 mph62%29.96 "Hg10 mi
11:51 PM
Thu, Jun 23
78 °FClear.7 mph60%29.95 "Hg10 mi
10:51 PM80 °FClear.9 mph52%29.93 "Hg10 mi
9:51 PM83 °FClear.8 mph46%29.91 "Hg10 mi
8:51 PM87 °FSunny.10 mph39%29.89 "Hg10 mi
Weather by CustomWeather, © 2016

See weather overviewHow to use our weather pages